Regional Weather Roundup
Issued by NWS Spokane, WA

Home | Current Version | Previous Version | Text Only | Print | Product List | Glossary On
Versions: 1 2 3 4 5 6 7 8 9 10 11 12 13 14 15 16 17 18 19 20 21 22 23 24 25 26 27 28 29 30 31 32 33 34 35 36 37 38 39 40 41 42 43 44 45 46 47 48 49 50
590
NZUS01 KOTX 031210
RWROTX
EASTERN WASHINGTON/NORTHERN IDAHO ROUNDUP
NATIONAL WEATHER SERVICE, SPOKANE WA
500 AM PDT TUE MAY 03 2016

Note: "fair" indicated few or no clouds below 12,000 feet with no
significant weather and/or obstructions to visibility.

...NORTHEAST WASHINGTON AND NORTHERN IDAHO PANHANDLE...

CITY           SKY/WX    TMP DP  RH WIND       PRES   REMARKS
SPOKANE INTL   CLEAR     52  43  71 E3        30.07R
SPOKANE DOWNTO CLEAR     48  43  82 CALM      30.07S
COEUR D ALENE  CLEAR     48  43  81 E7        30.06S
DEER PARK      CLEAR     42  38  85 CALM      30.07R
SANDPOINT      CLEAR     41  39  93 CALM      30.11R

...SOUTHEAST WASHINGTON AND SOUTHERN IDAHO PANHANDLE...

CITY           SKY/WX    TMP DP  RH WIND       PRES   REMARKS
WALLA WALLA    CLEAR     65  31  28 N5        29.97R
PULLMAN/MOSCOW CLEAR     53  41  63 NE7       30.09S
LEWISTON       CLEAR     55  43  63 CALM      30.06R
LOWELL           N/A     45  42  89 CALM      30.17R

...COLUMBIA BASIN...

CITY           SKY/WX    TMP DP  RH WIND       PRES   REMARKS
EPHRATA        CLEAR     52  43  71 N9        29.99S
MOSES LAKE     CLEAR     47  41  80 N7        30.00S
TRI CITIES     CLEAR     47  42  83 N3        29.97R
HERMISTON      CLEAR     51  37  58 CALM      29.94S
PENDLETON      CLEAR     61  26  26 S6        29.98S

...EAST SLOPES CASCADES...

CITY           SKY/WX    TMP DP  RH WIND       PRES   REMARKS
THE DALLES     PTCLDY    65  41  41 NW8       29.95R
YAKIMA         CLEAR     49  39  68 W7        29.98S
ELLENSBURG     CLEAR     48  41  76 CALM      30.00S
STAMPEDE PASS  MOCLDY    56  31  38 CALM      30.06S
WENATCHEE      PTCLDY    55  38  52 NW7       30.01S
OMAK           CLEAR     47  39  74 NW6       30.04R

...SOUTHERN BRITISH COLUMBIA...

CITY           SKY/WX    TMP DP  RH WIND       PRES   REMARKS
PENTICTON      CLEAR     48  39  71 CALM      30.04R
CRANBROOK      PTCLDY    46  32  57 W5        30.13R

...WESTERN MONTANA...

CITY           SKY/WX    TMP DP  RH WIND       PRES   REMARKS
MISSOULA       CLEAR     40  35  83 CALM      30.18R

...NEIGHBORING CITIES...

CITY           SKY/WX    TMP DP  RH WIND       PRES   REMARKS
SEATTLE        PTCLDY    57  51  80 S8        30.01R
CALGARY        PTCLDY    46  32  57 S7        30.03R



USA.gov is the U.S. government's official web portal to all federal, state and local government web resources and services.